Change the Weather History Date:

Thursday, July 4, 2013

  Actual Average Record
Temperature  
Mean Temperature 73 °F -  
Max Temperature 92 °F - - ()
Min Temperature 54 °F - - ()
Cooling Degree Days 8    
Growing Degree Days 23 (Base 50)    
Moisture  
Dew Point 65 °F    
Average Humidity 76    
Maximum Humidity 100    
Minimum Humidity 37    
Precipitation  
Precipitation 0.00 in - - ()
Sea Level Pressure  
Sea Level Pressure 30.08 in    
Wind  
Wind Speed 5 mph ()    
Max Wind Speed 13 mph    
Max Gust Speed 20 mph    
T = Trace of Precipitation, MM = Missing Value Source: Averaged Metar Reports

Daily Weather History Graph

Daily Weather History Graph

Search for Another Location

Airport or City:

Trip Planner

Search our weather history database for the weather conditions in past years. The results will help you decide how hot, cold, wet, or windy it might be!

Date:

Astronomy

Jul. 04, 2013 Rise Set
Actual Time 5:41 AM ADT 9:04 PM ADT
Civil Twilight 5:05 AM ADT 9:40 PM ADT
Nautical Twilight 4:18 AM ADT 10:27 PM ADT
Astronomical Twilight 3:19 AM ADT 11:25 PM ADT
Moon 2:58 AM ADT (7/4) 6:02 PM ADT (7/4)
Length of Visible Light 16h 34m
Length of Day
15h 22m
Waning Crescent, 12% of the Moon is Illuminated
Jul 4
Waning Crescent
Jul 8
New
Jul 16
First Quarter
Jul 22
Full
Jul 29
Last Quarter

Hourly Weather History & Observations

Time (ADT) Temp. Heat Index Dew Point Humidity Pressure Visibility Wind Dir Wind Speed Gust Speed Precip Events Conditions
12:00 AM 62 °F - 62 °F 99% 30.14 in - WNW 1.2 mph - -  
12:00 AM 61.9 °F - 61.9 °F 100% 30.14 in - WNW 1.2 mph - N/A   Unknown
1:00 AM 59.5 °F - 59.5 °F 100% 30.14 in - WSW 6.9 mph - N/A   Unknown
2:00 AM 62.6 °F - 62.6 °F 100% 30.13 in - West 4.6 mph - N/A   Unknown
3:00 AM 59 °F - 59 °F 100% 30.12 in - SW 5.8 mph - -  
3:00 AM 59.0 °F - 59.0 °F 100% 30.12 in - SW 5.8 mph - N/A   Unknown
4:00 AM 54.5 °F - 54.5 °F 100% 30.11 in - SSW 4.6 mph - N/A   Unknown
5:00 AM 55.6 °F - - N/A% 30.11 in - South 2.3 mph - N/A   Unknown
6:00 AM 60 °F - - % 30.10 in - WSW 4.6 mph - -  
6:00 AM 59.7 °F - - N/A% 30.10 in - WSW 4.6 mph - N/A   Unknown
7:00 AM 57.6 °F - - N/A% 30.10 in - SW 6.9 mph - N/A   Unknown
8:00 AM 61.7 °F - - N/A% 30.11 in - WSW 4.6 mph - N/A   Unknown
9:00 AM 69 °F - 67 °F 89% 30.11 in - WSW 5.8 mph - -  
9:00 AM 68.5 °F - 66.6 °F 93% 30.11 in - WSW 5.8 mph - N/A   Unknown
10:00 AM 72.5 °F - 66.9 °F 83% 30.11 in - SW 5.8 mph - N/A   Unknown
11:00 AM 82.4 °F 86.7 °F 71.1 °F 68% 30.10 in - NW 9.2 mph - N/A   Unknown
12:00 PM 85 °F - 72 °F 56% 30.09 in - West 11.5 mph - -  
12:00 PM 85.5 °F 91.1 °F 71.8 °F 63% 30.09 in - West 11.5 mph 18.4 mph N/A   Unknown
1:00 PM 67.6 °F - 62.6 °F 84% 30.08 in - SSW 6.9 mph - N/A   Unknown
2:00 PM 67.3 °F - 60.4 °F 79% 30.06 in - SSW 4.6 mph - N/A   Unknown
3:00 PM 72 °F - 61 °F 61% 30.05 in - SSW 9.2 mph - -  
3:00 PM 71.6 °F - 61.3 °F 70% 30.05 in - SSW 9.2 mph - N/A   Unknown
4:00 PM 90.9 °F 94.8 °F 68.0 °F 47% 30.03 in - West 11.5 mph 19.6 mph N/A   Unknown
5:00 PM 90.0 °F 92.8 °F 66.6 °F 46% 30.03 in - WNW 12.7 mph 19.6 mph N/A   Unknown
6:00 PM 89 °F - 66 °F 37% 30.02 in - WNW 10.4 mph - -  
6:00 PM 89.1 °F 91.3 °F 66.0 °F 46% 30.02 in - WNW 10.4 mph - N/A   Unknown
7:00 PM 86.0 °F 88.5 °F 66.6 °F 52% 30.03 in - NW 9.2 mph - N/A   Unknown
8:00 PM 82.4 °F 85.0 °F 67.3 °F 60% 30.04 in - WNW 8.1 mph - N/A   Unknown
9:00 PM 76 °F - 67 °F 68% 30.06 in - West 6.9 mph - -  
9:00 PM 76.3 °F - 67.5 °F 74% 30.06 in - West 6.9 mph - N/A   Unknown
10:00 PM 71.8 °F - 66.6 °F 84% 30.07 in - West 5.8 mph - N/A   Unknown
11:00 PM 67.6 °F - 61.3 °F 80% 30.06 in - West 6.9 mph - N/A   Unknown